This demonstration page uses our WeatherBlox Daily Observations layout. Learn more.

Left ArrowRight Arrow

39.95238, -75.16362

Hourly Observations for February 1, 2017

Temp ( °F °C ) Dew Point ( °F °C ) Humidity (%) Winds ( mph kmh ) Pressure ( in mb ) Visibility ( mi km ) Precip ( " mm )
12:54 am 00:54 Partly Cloudy 42 5.6 28 -2.2 58 58 W 14 22 29.88 1012 10 16 0.00 0.00
1:54 am 01:54 Partly Cloudy 44 6.7 27 -2.8 51 51 W 16 26 29.90 1012 10 16 0.00 0.00
2:54 am 02:54 Partly Cloudy 43 6.1 29 -1.7 58 58 WSW 13 20 29.91 1013 10 16 0.00 0.00
3:54 am 03:54 Partly Cloudy 44 6.7 28 -2.2 53 53 SW 15 24 29.92 1013 10 16 0.00 0.00
4:54 am 04:54 Partly Cloudy 41 5 28 -2.2 60 60 SW 14 22 29.96 1014 10 16 0.00 0.00
5:54 am 05:54 Partly Cloudy 41 5 28 -2.2 60 60 SW 10 17 29.96 1015 10 16 0.00 0.00
6:54 am 06:54 Mostly Cloudy 40 4.4 27 -2.8 60 60 WSW 9 15 29.96 1015 10 16 0.00 0.00
7:54 am 07:54 Mostly Cloudy 41 5 29 -1.7 62 62 WSW 9 15 29.97 1015 10 16 0.00 0.00
8:54 am 08:54 Mostly Cloudy 44 6.7 28 -2.2 53 53 W 13 20 29.98 1015 10 16 0.00 0.00
9:54 am 09:54 Mostly Cloudy 45 7.2 28 -2.2 52 52 WSW 13 20 29.99 1016 10 16 0.00 0.00
10:54 am 10:54 Mostly Cloudy 47 8.3 26 -3.3 44 44 W 20 31 29.98 1015 10 16 0.00 0.00
11:54 am 11:54 Mostly Cloudy 49 9.4 27 -2.8 43 43 W 17 28 29.96 1015 10 16 0.00 0.00
12:54 pm 12:54 Cloudy 49 9.4 26 -3.3 41 41 W 15 24 29.94 1014 10 16 0.00 0.00
1:54 pm 13:54 Cloudy 49 9.4 27 -2.8 43 43 W 14 22 29.94 1014 10 16 0.00 0.00
2:54 pm 14:54 Cloudy 48 8.9 27 -2.8 44 44 W 14 22 29.95 1014 10 16 0.00 0.00
3:54 pm 15:54 Cloudy 49 9.4 28 -2.2 44 44 W 13 20 29.97 1015 10 16 0.00 0.00
4:54 pm 16:54 Mostly Cloudy 48 8.9 28 -2.2 46 46 W 12 19 29.99 1016 10 16 0.00 0.00
5:54 pm 17:54 Mostly Cloudy 47 8.3 28 -2.2 48 48 W 14 22 30.02 1017 10 16 0.00 0.00
6:54 pm 18:54 Mostly Cloudy 38 3.3 27 -2.8 65 65 Calm 29.82 1010 10 16 0.00 0.00
7:54 pm 19:54 Mostly Cloudy 46 7.8 28 -2.2 50 50 WNW 14 22 30.05 1018 10 16 0.00 0.00
8:54 pm 20:54 Mostly Cloudy 45 7.2 24 -4.4 44 44 WNW 13 20 30.06 1018 10 16 0.00 0.00
9:54 pm 21:54 Cloudy 44 6.7 24 -4.4 45 45 WNW 8 13 30.08 1019 10 16 0.00 0.00
10:54 pm 22:54 Cloudy 43 6.1 25 -3.9 49 49 NW 7 11 30.06 1018 10 16 0.00 0.00
11:54 pm 23:54 Cloudy 41 5 25 -3.9 53 53 NW 5 7 30.07 1018 10 16 0.00 0.00

Powered by AerisWeather